Flock 4h-13

operational
NORAD ID: 66716 Int'l Des: 2025-276 Owner: PLAN Country: US Constellation: planet
NOTLE

About Flock 4h-13

Description loading...

Live Position

Loading 3D Globe...

Upcoming Passes

Altitude History

Altitude vs Time

uPlot chart will show altitude changes over time

Two-Line Element Set

1 66716U 25276BC 26047.16331213 .00007887 00000-0 37821-3 0 9991
2 66716 97.4344 122.8984 0001744 52.1560 307.9832 15.19165082 12056
Epoch: Feb 16, 2026 • Age: 14 hours

Current Status

Altitude 510.9 km
Velocity 7.61 km/s
Sub-Earth Point 28.82°N, 58.53°E
Launch Date Nov 28, 2025
Age 0.2 years
Type earth observation

Technical Details

Classification Payload
Mass 5.70 kg
Dry Mass 5.70 kg
Total Mass 5.70 kg
Length 0.30 m
Diameter 0.10 m
Span 0.30 m
Shape Box+2 pan
Manufacturer PLAN
Bus Type Cubesat 3U
Phase Status In Orbit
Owner/State PLAN/US

Large Constellations

Loading constellations...